This is the latest recevied weather packets stored in our database for station/object KP4CRN. If no packets are shown the sender has not sent any weather packets the latest 10 day(s).
| Time | Temp. | Humidity | Pressure | Rain* | Wind** | Luminosity | Snow |
|---|---|---|---|---|---|---|---|
| 1778110930 | 28.33° C | 79% | 1017.5 hPa | 0 mm | - | 0 W/m² | - |
| 1778110627 | 28.33° C | 78% | 1017.4 hPa | 0 mm | - | 0 W/m² | - |
| 1778110324 | 28.33° C | 77% | 1017.3 hPa | 0 mm | - | 0 W/m² | - |
| 1778110020 | 28.89° C | 77% | 1017.4 hPa | 0 mm | - | 0 W/m² | - |
| 1778109715 | 28.89° C | 77% | 1017.2 hPa | 0 mm | - | 0 W/m² | - |
| 1778109413 | 28.89° C | 76% | 1017.2 hPa | 0 mm | - | 0 W/m² | - |
| 1778109111 | 28.89° C | 76% | 1016.9 hPa | 0 mm | - | 0 W/m² | - |
| 1778108807 | 28.89° C | 75% | 1016.8 hPa | 0 mm | - | 0 W/m² | - |
| 1778108504 | 28.89° C | 74% | 1016.9 hPa | 0 mm | - | 0 W/m² | - |
| 1778108201 | 28.89° C | 74% | 1016.7 hPa | 0 mm | - | 1 W/m² | - |
| 1778107898 | 29.44° C | 73% | 1016.6 hPa | 0 mm | - | 2 W/m² | - |
| 1778107594 | 29.44° C | 73% | 1016.5 hPa | 0 mm | - | 4 W/m² | - |
| 1778107291 | 29.44° C | 73% | 1016.5 hPa | 0 mm | - | 7 W/m² | - |
| 1778106987 | 29.44° C | 72% | 1016.3 hPa | 0 mm | - | 10 W/m² | - |
| 1778106683 | 30° C | 72% | 1016.2 hPa | 0 mm | - | 14 W/m² | - |
| 1778106380 | 30° C | 72% | 1016.2 hPa | 0 mm | - | 17 W/m² | - |
| 1778106076 | 30.56° C | 70% | 1016.2 hPa | 0 mm | - | 24 W/m² | - |
| 1778105774 | 30° C | 70% | 1016.1 hPa | 0 mm | - | 31 W/m² | - |
| 1778105472 | 30.56° C | 69% | 1016.1 hPa | 0 mm | - | 38 W/m² | - |
| 1778105168 | 30.56° C | 69% | 1016.1 hPa | 0 mm | - | 46 W/m² | - |
| 1778104864 | 30.56° C | 70% | 1015.9 hPa | 0 mm | - | 54 W/m² | - |
| 1778104561 | 31.11° C | 69% | 1015.9 hPa | 0 mm | - | 64 W/m² | - |
| 1778104256 | 31.11° C | 69% | 1015.7 hPa | 0 mm | - | 75 W/m² | - |
| 1778103953 | 31.11° C | 67% | 1015.7 hPa | 0 mm | - | 86 W/m² | - |
| 1778103651 | 31.11° C | 66% | 1015.5 hPa | 0 mm | - | 98 W/m² | - |
* Rain latest hour (hover to see other rain measurements)
** Current wind speed in m/s (hover to see current wind gust speed)